• In Deutschland
  • Länderverzeichnis
  • Für 7 Tage
  • Wassertemperatur
  • Satellitenkarten
  • Wetterkarte
  • Widgets
  • user-avatar
    Anmelden

    Stündliche Wetter Lankaran

    Heute, 29 März, Mittwoch

    Zeit Temperatur Niederschläge Wind Luftdruck Luftfeuchtigkeit
    00:00 +3°C° 0 mm 2 m/S 631 mmHg 84%
    01:00 +2°C° 0 mm 2 m/S 631 mmHg 83%
    02:00 +2°C° 0 mm 2 m/S 631 mmHg 83%
    03:00 +2°C° 0 mm 2 m/S 631 mmHg 82%
    04:00 +2°C° 0 mm 2 m/S 631 mmHg 82%
    05:00 +1°C° 0 mm 3 m/S 631 mmHg 81%
    06:00 +1°C° 0 mm 3 m/S 631 mmHg 80%
    07:00 +3°C° 0 mm 3 m/S 632 mmHg 72%
    08:00 +5°C° 0 mm 4 m/S 633 mmHg 64%
    09:00 +7°C° 0 mm 4 m/S 633 mmHg 56%
    10:00 +8°C° 0 mm 4 m/S 634 mmHg 52%
    11:00 +10°C° 0 mm 3 m/S 634 mmHg 49%
    12:00 +10°C° 0 mm 3 m/S 634 mmHg 45%
    13:00 +10°C° 0 mm 3 m/S 634 mmHg 45%
    14:00 +10°C° 0 mm 3 m/S 634 mmHg 46%
    15:00 +10°C° 0 mm 3 m/S 634 mmHg 46%
    16:00 +9°C° 0 mm 3 m/S 634 mmHg 52%
    17:00 +7°C° 0 mm 2 m/S 634 mmHg 58%
    18:00 +6°C° 0 mm 2 m/S 634 mmHg 65%
    19:00 +6°C° 0 mm 1 m/S 634 mmHg 69%
    20:00 +5°C° 0 mm 1 m/S 634 mmHg 73%
    21:00 +4°C° 0 mm 1 m/S 635 mmHg 77%
    22:00 +3°C° 0 mm 1 m/S 635 mmHg 79%
    23:00 +3°C° 0 mm 1 m/S 635 mmHg 81%

    Morgen, 30 März, Donnerstag

    Zeit Temperatur Niederschläge Wind Luftdruck Luftfeuchtigkeit
    00:00 +2°C° 0 mm 1 m/S 635 mmHg 83%
    01:00 +2°C° 0 mm 1 m/S 635 mmHg 84%
    02:00 +2°C° 0 mm 1 m/S 635 mmHg 85%
    03:00 +1°C° 0 mm 1 m/S 635 mmHg 85%
    04:00 +1°C° 0 mm 1 m/S 635 mmHg 85%
    05:00 +2°C° 0 mm 1 m/S 635 mmHg 85%
    06:00 +2°C° 0 mm 1 m/S 635 mmHg 85%
    07:00 +3°C° 0 mm 2 m/S 636 mmHg 78%
    08:00 +5°C° 0 mm 2 m/S 636 mmHg 71%
    09:00 +7°C° 0 mm 2 m/S 637 mmHg 63%
    10:00 +8°C° 0 mm 2 m/S 637 mmHg 60%
    11:00 +9°C° 0 mm 3 m/S 636 mmHg 56%
    12:00 +10°C° 0 mm 3 m/S 636 mmHg 52%
    13:00 +10°C° 0 mm 3 m/S 635 mmHg 51%
    14:00 +11°C° 0 mm 3 m/S 635 mmHg 50%
    15:00 +11°C° 0 mm 3 m/S 634 mmHg 49%
    16:00 +10°C° 0 mm 3 m/S 634 mmHg 53%
    17:00 +9°C° 0 mm 2 m/S 633 mmHg 58%
    18:00 +8°C° 0 mm 2 m/S 633 mmHg 62%
    19:00 +7°C° 0 mm 2 m/S 632 mmHg 63%
    20:00 +8°C° 0 mm 1 m/S 632 mmHg 63%
    21:00 +7°C° 0 mm 1 m/S 632 mmHg 64%
    22:00 +7°C° 0 mm 1 m/S 632 mmHg 64%
    23:00 +6°C° 0 mm 2 m/S 632 mmHg 63%

    übermorgen, 31 März, Freitag

    Zeit Temperatur Niederschläge Wind Luftdruck Luftfeuchtigkeit
    00:00 +5°C° 0 mm 2 m/S 632 mmHg 63%
    01:00 +5°C° 0 mm 2 m/S 632 mmHg 62%
    02:00 +5°C° 0 mm 2 m/S 632 mmHg 62%
    03:00 +5°C° 0 mm 2 m/S 632 mmHg 61%
    04:00 +4°C° 0 mm 2 m/S 632 mmHg 63%
    05:00 +4°C° 0 mm 2 m/S 632 mmHg 64%
    06:00 +4°C° 0 mm 2 m/S 632 mmHg 66%
    07:00 +6°C° 0 mm 2 m/S 633 mmHg 61%
    08:00 +7°C° 0 mm 2 m/S 634 mmHg 56%
    09:00 +9°C° 0 mm 2 m/S 635 mmHg 50%
    10:00 +10°C° 0 mm 2 m/S 635 mmHg 50%
    11:00 +10°C° 0 mm 3 m/S 635 mmHg 49%
    12:00 +11°C° 0 mm 3 m/S 635 mmHg 48%
    13:00 +10°C° 0 mm 4 m/S 635 mmHg 52%
    14:00 +8°C° 0 mm 4 m/S 634 mmHg 55%
    15:00 +8°C° 0 mm 4 m/S 634 mmHg 58%
    16:00 +6°C° 0 mm 5 m/S 634 mmHg 66%
    17:00 +5°C° 0 mm 5 m/S 634 mmHg 73%
    18:00 +2°C° 0 mm 5 m/S 634 mmHg 81%
    19:00 +1°C° 0,2 mm 5 m/S 635 mmHg 83%
    20:00 +1°C° 0,2 mm 5 m/S 635 mmHg 85%
    21:00 0°C° 0,2 mm 5 m/S 635 mmHg 87%
    22:00 0°C° 0,5 mm 5 m/S 635 mmHg 87%
    23:00 -1°C° 0,5 mm 5 m/S 635 mmHg 88%

    1 April, Samstag

    Zeit Temperatur Niederschläge Wind Luftdruck Luftfeuchtigkeit
    00:00 -1°C° 0,5 mm 5 m/S 635 mmHg 88%
    01:00 -1°C° 0,3 mm 5 m/S 635 mmHg 88%
    02:00 -2°C° 0,3 mm 5 m/S 635 mmHg 89%
    03:00 -2°C° 0,3 mm 5 m/S 635 mmHg 89%
    04:00 -4°C° 1,7 mm 5 m/S 635 mmHg 90%
    05:00 -4°C° 1,7 mm 5 m/S 635 mmHg 91%
    06:00 -4°C° 1,7 mm 5 m/S 635 mmHg 92%
    07:00 -3°C° 1,7 mm 4 m/S 635 mmHg 92%
    08:00 -3°C° 1,7 mm 4 m/S 635 mmHg 92%
    09:00 -2°C° 1,7 mm 3 m/S 635 mmHg 92%
    10:00 -2°C° 0,5 mm 3 m/S 635 mmHg 91%
    11:00 -1°C° 0,5 mm 3 m/S 635 mmHg 90%
    12:00 0°C° 0,5 mm 3 m/S 634 mmHg 89%
    13:00 0°C° 0,1 mm 3 m/S 634 mmHg 89%
    14:00 +1°C° 0,1 mm 3 m/S 633 mmHg 89%
    15:00 +1°C° 0,1 mm 3 m/S 633 mmHg 88%
    16:00 +1°C° 0,5 mm 3 m/S 633 mmHg 90%
    17:00 0°C° 0,5 mm 3 m/S 633 mmHg 91%
    18:00 0°C° 0,5 mm 3 m/S 633 mmHg 92%
    19:00 -1°C° 0,6 mm 3 m/S 633 mmHg 92%
    20:00 -1°C° 0,6 mm 2 m/S 633 mmHg 92%
    21:00 -1°C° 0,6 mm 2 m/S 633 mmHg 92%
    22:00 -1°C° 0,4 mm 2 m/S 632 mmHg 93%
    23:00 -1°C° 0,4 mm 2 m/S 632 mmHg 93%

    2 April, Sonntag

    Zeit Temperatur Niederschläge Wind Luftdruck Luftfeuchtigkeit
    00:00 -1°C° 0,4 mm 2 m/S 632 mmHg 94%
    01:00 -1°C° 0,9 mm 2 m/S 631 mmHg 94%
    02:00 -1°C° 0,9 mm 2 m/S 631 mmHg 94%
    03:00 -1°C° 0,9 mm 2 m/S 631 mmHg 93%
    04:00 -1°C° 0,4 mm 2 m/S 631 mmHg 94%
    05:00 -1°C° 0,4 mm 2 m/S 631 mmHg 94%
    06:00 -2°C° 0,4 mm 2 m/S 632 mmHg 94%
    07:00 -1°C° 0,7 mm 3 m/S 632 mmHg 92%
    08:00 -1°C° 0,7 mm 3 m/S 632 mmHg 90%
    09:00 0°C° 0,7 mm 3 m/S 633 mmHg 89%
    10:00 0°C° 0,4 mm 3 m/S 633 mmHg 87%
    11:00 +1°C° 0,4 mm 3 m/S 633 mmHg 86%
    12:00 +1°C° 0,4 mm 3 m/S 633 mmHg 84%
    13:00 +1°C° 0,2 mm 3 m/S 633 mmHg 84%
    14:00 +2°C° 0,2 mm 3 m/S 633 mmHg 84%
    15:00 +2°C° 0,2 mm 3 m/S 633 mmHg 83%
    16:00 +1°C° 0,1 mm 3 m/S 634 mmHg 85%
    17:00 +1°C° 0,1 mm 3 m/S 634 mmHg 87%
    18:00 0°C° 0,1 mm 3 m/S 634 mmHg 89%
    19:00 +1°C° 0,1 mm 2 m/S 634 mmHg 90%
    20:00 -1°C° 0,1 mm 2 m/S 635 mmHg 91%
    21:00 -1°C° 0,1 mm 2 m/S 635 mmHg 92%
    22:00 -2°C° 0,1 mm 2 m/S 635 mmHg 92%
    23:00 -2°C° 0,1 mm 2 m/S 635 mmHg 93%

    3 April, Montag

    Zeit Temperatur Niederschläge Wind Luftdruck Luftfeuchtigkeit
    00:00 0°C° 0,1 mm 1 m/S 635 mmHg 93%
    01:00 0°C° 0,1 mm 1 m/S 635 mmHg 93%
    02:00 0°C° 0,1 mm 1 m/S 635 mmHg 93%
    03:00 -1°C° 0,1 mm 1 m/S 635 mmHg 93%
    04:00 0°C° 0,1 mm 1 m/S 635 mmHg 93%
    05:00 0°C° 0,1 mm 1 m/S 635 mmHg 92%
    06:00 0°C° 0,1 mm 1 m/S 635 mmHg 92%
    07:00 -1°C° 0,2 mm 2 m/S 636 mmHg 89%
    08:00 -1°C° 0,2 mm 2 m/S 636 mmHg 85%
    09:00 +1°C° 0,2 mm 2 m/S 637 mmHg 82%
    10:00 +2°C° 0,1 mm 2 m/S 637 mmHg 80%
    11:00 +2°C° 0,1 mm 2 m/S 637 mmHg 79%
    12:00 +3°C° 0,1 mm 2 m/S 637 mmHg 77%
    13:00 +2°C° 0,1 mm 3 m/S 636 mmHg 77%
    14:00 +2°C° 0,1 mm 3 m/S 636 mmHg 77%
    15:00 +2°C° 0,1 mm 3 m/S 636 mmHg 77%
    16:00 +2°C° 0 mm 2 m/S 636 mmHg 80%
    17:00 +2°C° 0 mm 2 m/S 636 mmHg 82%
    18:00 +1°C° 0 mm 2 m/S 636 mmHg 85%
    19:00 +2°C° 0 mm 1 m/S 636 mmHg 86%
    20:00 +1°C° 0 mm 1 m/S 636 mmHg 87%
    21:00 +1°C° 0 mm 1 m/S 637 mmHg 88%
    22:00 0°C° 0 mm 1 m/S 636 mmHg 89%
    23:00 -2°C° 0 mm 1 m/S 636 mmHg 89%
    Mehr zeigen